Temp
12 12 12 11 11 11 11 11 11 12 12 12 12 12 12 12 11 11 11 11 10 10 10 10 10 10 11 10 10 10 11 11 11 11 11 11 11 11 12 12 12 12 12
12 12 12 11 12 12 11 12 12 12 12 12 12 11 11 10 10 10 10 9 9 10 10 10 10 11 10 10 11 10 10 11 11 11 11 11 11 11 11 11 11 11 11
11 11 11 11 11 12 12 12 12 12 12 11 11 10 10 9 9 9 9 9 9 9 10 10 10 10 10 10 10 10 10 11 11 10 9 10 10 10 10 10 11 11 11
11 11 11 11 12 12 12 12 12 11 11 10 10 10 10 10 9 9 9 9 9 9 9 10 10 10 10 10 10 10 9 10 10 10 9 9 9 9 9 9 9 10 10
10 11 11 12 11 11 11 11 10 9 9 9 9 10 10 10 9 8 8 9 9 9 9 9 9 9 9 9 9 10 9 9 9 7 6 6 7 6 6 6 7 8 8
11 11 11 11 11 10 10 10 9 8 7 8 9 10 10 9 8 8 8 8 8 9 9 8 8 8 8 8 8 8 8 9 8 5 6 5 4 4 4 5 5 5 5
12 11 11 10 10 10 9 9 8 8 7 7 8 9 9 9 9 8 7 8 8 8 8 8 8 7 7 7 7 7 7 7 6 3 4 3 4 4 3 4 4 4 5
11 11 10 10 9 9 9 8 7 6 6 5 5 6 6 7 8 8 8 8 8 7 7 7 7 7 7 7 7 6 6 6 5 3 2 3 3 3 3 3 3 3 4
11 10 10 9 9 8 8 7 6 5 5 5 4 3 3 3 2 5 6 6 5 5 5 5 5 5 5 5 5 5 4 4 3 1 1 2 2 2 2 2 2 3 3
10 10 9 9 8 8 7 6 5 5 4 4 4 3 2 1 1 1 2 4 3 3 4 4 4 4 4 4 3 3 2 1 -0 0 0 1 1 1 1 1 2 2 3
10 9 9 8 7 7 6 5 4 4 3 3 3 2 2 2 1 -1 -1 2 3 3 3 2 2 2 2 2 1 -0 -1 -1 -1 -1 -1 -1 -0 -0 0 1 1 1 2
9 9 8 7 7 6 5 5 4 4 3 3 2 2 1 0 -0 -2 -3 -2 -2 -1 1 2 2 1 0 -1 -2 -2 -2 -2 -2 -2 -2 -2 -1 -1 -0 -0 0 0 1
9 8 7 7 6 5 5 4 4 3 3 3 2 2 1 0 -1 -2 -2 -2 -4 -2 -2 -3 -2 -2 -2 -3 -3 -3 -3 -3 -4 -4 -3 -3 -2 -2 -2 -2 -1 -1 -1
8 7 7 6 5 5 4 3 3 3 3 2 2 1 1 -0 -1 -2 -3 -4 -5 -5 -4 -5 -4 -4 -5 -5 -5 -5 -5 -5 -5 -5 -4 -4 -3 -3 -3 -3 -3 -2 -2
7 7 6 5 5 4 4 3 3 2 2 2 1 1 0 -1 -2 -3 -4 -5 -6 -7 -7 -6 -6 -6 -6 -6 -6 -6 -6 -6 -6 -5 -5 -5 -5 -5 -5 -4 -4 -4 -3
7 6 5 5 4 3 3 2 2 2 2 1 1 0 -0 -2 -2 -4 -5 -6 -6 -7 -8 -6 -6 -7 -7 -7 -6 -6 -6 -6 -6 -6 -6 -6 -6 -6 -6 -5 -5 -4 -4
6 5 5 4 3 3 2 2 2 1 1 1 0 -0 -1 -3 -4 -6 -6 -7 -7 -7 -7 -7 -7 -7 -7 -6 -6 -6 -7 -8 -8 -7 -7 -7 -7 -7 -6 -6 -5 -5 -5
5 5 4 3 2 2 2 1 1 1 1 -0 -1 -2 -3 -4 -5 -6 -7 -7 -8 -7 -7 -7 -7 -7 -7 -6 -7 -7 -7 -7 -8 -8 -8 -8 -7 -7 -7 -6 -6 -6 -6
5 4 3 2 2 1 1 1 1 0 -0 -1 -2 -3 -5 -5 -6 -7 -8 -8 -8 -8 -8 -8 -8 -7 -7 -7 -8 -8 -8 -9 -9 -9 -9 -9 -9 -8 -8 -7 -7 -7 -6
4 3 2 1 1 1 1 0 -0 -1 -1 -2 -4 -5 -5 -6 -7 -8 -8 -8 -8 -8 -8 -8 -7 -7 -8 -8 -8 -9 -9 -9 -10 -10 -10 -10 -9 -9 -9 -9 -8 -8 -8
2 2 1 1 0 0 -0 -1 -2 -2 -3 -4 -5 -5 -6 -7 -8 -8 -8 -8 -8 -8 -8 -7 -8 -8 -9 -9 -9 -9 -10 -10 -10 -10 -10 -10 -10 -10 -10 -10 -9 -9 -9
1 1 0 0 -0 -0 -1 -1 -2 -4 -5 -5 -6 -7 -8 -8 -8 -8 -8 -8 -8 -8 -8 -8 -9 -9 -10 -10 -9 -10 -10 -10 -10 -10 -10 -10 -10 -10 -10 -10 -9 -10 -9
0 -0 -0 -1 -1 -1 -1 -2 -3 -5 -6 -7 -7 -8 -8 -8 -8 -8 -8 -8 -8 -8 -9 -9 -10 -10 -10 -9 -9 -10 -10 -10 -10 -10 -11 -10 -10 -10 -9 -9 -9 -10 -9
-0 -0 -1 -1 -1 -2 -3 -3 -5 -6 -7 -8 -8 -8 -8 -8 -9 -9 -8 -8 -8 -9 -9 -9 -10 -10 -10 -10 -10 -10 -10 -10 -10 -10 -11 -11 -10 -11 -10 -10 -10 -10 -9
-1 -1 -1 -2 -2 -3 -4 -4 -5 -7 -8 -8 -8 -8 -9 -9 -9 -8 -8 -9 -10 -9 -9 -9 -10 -10 -10 -10 -10 -10 -10 -11 -11 -11 -10 -11 -11 -11 -10 -10 -9 -10 -9
-2 -2 -2 -3 -4 -4 -4 -6 -8 -9 -9 -8 -8 -9 -9 -9 -9 -9 -9 -10 -10 -9 -9 -10 -10 -9 -9 -9 -9 -10 -11 -11 -12 -11 -10 -11 -11 -11 -10 -10 -9 -9 -9
Height
1512 1513 1513 1513 1514 1514 1512 1509 1509 1507 1505 1503 1502 1500 1498 1495 1493 1492 1491 1490 1489 1489 1489 1487 1486 1485 1485 1484 1482 1480 1479 1478 1478 1477 1475 1475 1474 1474 1475 1475 1475 1474 1474
1512 1513 1512 1512 1513 1511 1510 1507 1507 1504 1501 1499 1498 1496 1493 1491 1489 1488 1487 1487 1487 1487 1485 1484 1483 1483 1481 1480 1479 1478 1476 1476 1475 1474 1472 1471 1471 1471 1471 1470 1469 1468 1468
1510 1511 1512 1511 1510 1509 1507 1505 1504 1501 1498 1496 1495 1493 1490 1488 1486 1486 1485 1485 1485 1484 1483 1482 1481 1480 1478 1477 1476 1474 1472 1472 1471 1469 1467 1466 1466 1465 1464 1463 1463 1462 1461
1508 1509 1510 1510 1509 1507 1505 1503 1501 1498 1494 1492 1492 1490 1487 1485 1484 1484 1484 1483 1483 1482 1480 1479 1477 1475 1474 1472 1470 1469 1467 1466 1465 1463 1462 1460 1459 1459 1458 1456 1456 1455 1455
1507 1508 1508 1508 1507 1505 1502 1500 1497 1493 1490 1490 1489 1487 1484 1482 1482 1482 1481 1481 1480 1479 1478 1476 1474 1472 1471 1468 1466 1464 1462 1460 1459 1457 1455 1453 1452 1451 1450 1449 1448 1448 1447
1506 1507 1507 1506 1504 1502 1498 1497 1495 1492 1489 1488 1486 1484 1481 1480 1479 1480 1479 1478 1478 1477 1475 1473 1471 1468 1466 1463 1461 1459 1456 1454 1453 1451 1448 1448 1446 1445 1444 1442 1441 1441 1440
1504 1505 1505 1504 1502 1499 1496 1494 1493 1491 1488 1485 1481 1480 1479 1478 1477 1476 1476 1476 1475 1473 1472 1469 1467 1463 1461 1458 1455 1452 1449 1448 1447 1444 1442 1441 1440 1438 1437 1435 1434 1433 1432
1503 1503 1503 1501 1499 1497 1495 1493 1492 1490 1488 1484 1482 1478 1476 1475 1474 1476 1474 1473 1471 1469 1468 1465 1462 1459 1455 1452 1449 1446 1443 1441 1439 1437 1435 1435 1433 1431 1429 1428 1426 1425 1423
1501 1501 1500 1498 1498 1496 1493 1492 1491 1489 1488 1486 1483 1483 1479 1475 1468 1466 1467 1465 1464 1461 1459 1457 1454 1451 1449 1445 1441 1438 1435 1433 1430 1429 1428 1427 1426 1424 1422 1419 1417 1416 1414
1499 1499 1498 1497 1496 1494 1493 1492 1490 1488 1486 1485 1484 1483 1481 1478 1472 1460 1458 1458 1455 1453 1450 1448 1446 1443 1440 1437 1433 1429 1426 1425 1424 1423 1421 1419 1417 1415 1412 1410 1408 1407 1405
1496 1496 1496 1495 1494 1493 1492 1490 1489 1487 1485 1483 1480 1478 1476 1474 1472 1466 1452 1447 1446 1444 1441 1439 1437 1435 1432 1429 1425 1422 1420 1418 1417 1415 1413 1410 1408 1405 1402 1400 1398 1396 1394
1494 1495 1494 1493 1492 1491 1490 1489 1487 1486 1484 1481 1478 1476 1473 1470 1467 1463 1454 1445 1437 1432 1432 1431 1430 1426 1424 1421 1419 1416 1413 1411 1409 1406 1403 1400 1397 1394 1391 1388 1386 1384 1382
1492 1493 1492 1491 1490 1489 1487 1486 1485 1483 1481 1478 1475 1473 1470 1468 1464 1461 1454 1445 1433 1423 1421 1420 1420 1418 1416 1414 1412 1409 1406 1403 1399 1395 1392 1389 1386 1383 1379 1376 1373 1371 1369
1491 1490 1490 1489 1488 1486 1485 1483 1481 1480 1477 1475 1472 1469 1466 1463 1461 1457 1452 1444 1427 1423 1416 1413 1411 1410 1410 1407 1405 1402 1397 1393 1389 1385 1382 1378 1375 1371 1367 1364 1361 1358 1355
1489 1488 1487 1486 1485 1483 1482 1480 1478 1476 1474 1471 1468 1465 1461 1458 1455 1451 1448 1444 1438 1420 1406 1406 1406 1403 1400 1398 1395 1392 1389 1385 1382 1378 1373 1369 1364 1360 1355 1351 1347 1344 1341
1486 1485 1485 1484 1482 1480 1478 1477 1475 1472 1470 1467 1463 1460 1457 1453 1449 1445 1441 1438 1434 1428 1411 1404 1398 1396 1393 1390 1386 1383 1380 1377 1372 1368 1363 1360 1355 1348 1342 1337 1333 1329 1326
1483 1482 1482 1481 1479 1477 1475 1472 1470 1468 1465 1462 1459 1454 1451 1446 1442 1438 1434 1431 1426 1422 1411 1393 1394 1389 1385 1381 1377 1373 1369 1365 1361 1358 1355 1349 1343 1337 1330 1324 1320 1316 1313
1480 1479 1478 1477 1475 1473 1471 1468 1466 1464 1460 1456 1452 1448 1443 1439 1435 1432 1428 1423 1418 1414 1408 1394 1386 1382 1378 1374 1368 1363 1359 1355 1350 1345 1341 1336 1330 1324 1318 1313 1309 1305 1301
1477 1476 1475 1473 1472 1469 1467 1464 1462 1459 1455 1451 1446 1441 1436 1432 1428 1424 1420 1415 1410 1405 1400 1393 1381 1376 1370 1366 1359 1355 1350 1343 1338 1334 1331 1324 1319 1313 1307 1303 1298 1293 1290
1473 1472 1471 1469 1468 1466 1463 1460 1457 1454 1450 1445 1440 1436 1431 1426 1421 1416 1412 1409 1404 1399 1393 1385 1376 1368 1364 1359 1354 1346 1338 1335 1327 1324 1316 1311 1308 1302 1297 1292 1287 1282 1277
1469 1468 1468 1467 1464 1462 1459 1455 1452 1447 1442 1438 1434 1429 1425 1420 1417 1413 1409 1403 1398 1391 1385 1376 1370 1365 1359 1352 1346 1339 1331 1323 1316 1315 1305 1299 1294 1288 1282 1277 1272 1268 1264
1466 1466 1465 1463 1460 1458 1455 1451 1446 1441 1436 1432 1428 1424 1420 1415 1410 1406 1402 1397 1393 1386 1380 1374 1366 1358 1352 1346 1339 1333 1326 1318 1303 1307 1298 1287 1286 1275 1270 1265 1260 1257 1254
1464 1463 1460 1458 1456 1452 1449 1445 1440 1435 1431 1427 1423 1418 1414 1410 1405 1399 1393 1388 1384 1381 1377 1369 1359 1353 1346 1341 1334 1326 1320 1313 1303 1295 1292 1277 1274 1263 1259 1252 1249 1244 1241
1461 1459 1457 1454 1451 1447 1443 1439 1434 1430 1426 1423 1419 1414 1409 1404 1399 1393 1388 1382 1376 1371 1366 1360 1354 1348 1342 1336 1330 1322 1314 1305 1295 1288 1285 1271 1264 1254 1247 1241 1236 1231 1228
1457 1456 1453 1449 1446 1442 1437 1433 1429 1424 1421 1417 1413 1409 1404 1399 1394 1390 1384 1375 1368 1362 1358 1353 1348 1342 1335 1328 1323 1316 1307 1299 1287 1279 1275 1266 1256 1247 1238 1228 1224 1221 1218
1454 1451 1449 1445 1441 1436 1433 1428 1424 1420 1416 1411 1407 1403 1400 1395 1390 1384 1378 1370 1361 1356 1350 1344 1339 1333 1328 1321 1316 1311 1303 1293 1285 1272 1268 1262 1250 1246 1229 1221 1217 1210 1203
Wind_Speed
5 3 3 2 4 8 11 12 15 16 16 18 20 22 24 24 22 21 18 16 15 13 8 7 7 8 7 5 3 6 9 9 8 10 12 12 14 17 19 21 23 24 25
5 4 4 4 8 11 13 13 16 19 22 23 24 23 21 19 16 13 11 10 8 7 8 8 9 8 7 9 9 9 11 13 14 15 17 18 19 20 21 20 20 22 25
5 3 4 8 10 9 12 16 20 22 23 22 19 16 14 13 12 9 8 8 8 9 10 10 12 12 13 13 13 15 17 19 19 18 19 23 23 23 23 24 24 23 23
5 5 6 7 7 11 15 18 20 20 19 17 14 11 13 12 11 9 8 10 11 12 12 13 14 15 16 17 18 19 20 22 23 24 26 28 28 27 25 25 25 26 27
6 7 5 6 9 12 15 17 17 17 17 15 14 11 12 10 10 10 10 8 10 11 13 14 14 17 19 20 21 21 23 24 24 21 18 21 23 19 20 21 23 26 29
7 5 4 7 10 13 15 15 15 16 18 19 17 15 8 8 9 11 17 12 16 14 21 18 18 22 21 23 24 25 26 27 25 15 23 19 15 15 16 16 17 17 19
8 3 4 8 12 16 19 19 17 16 18 22 23 20 9 4 12 13 9 17 20 18 21 21 27 25 27 27 28 29 29 29 24 17 21 17 17 17 19 20 19 21 22
6 2 4 9 15 18 19 19 18 18 19 23 23 19 11 10 2 11 23 19 24 19 27 23 27 28 28 29 30 32 33 33 29 24 18 18 18 20 22 23 24 25 26
6 2 6 11 14 18 19 19 19 19 18 17 19 15 9 7 31 8 27 17 31 28 34 32 32 31 30 32 34 35 34 32 27 21 19 20 23 25 26 28 29 29 30
6 3 7 10 14 17 18 18 18 18 18 18 17 16 15 16 13 18 17 38 34 41 40 39 37 38 34 33 33 34 32 27 22 22 24 26 27 30 33 33 33 32 32
5 5 7 11 14 16 17 17 17 17 18 19 20 21 20 19 18 20 35 41 45 44 42 44 41 36 34 31 29 27 26 24 24 26 27 31 34 35 34 34 35 35 35
6 6 8 11 14 16 17 17 17 17 19 20 20 20 20 21 22 22 33 43 43 44 48 41 40 34 33 27 26 30 28 26 29 30 34 35 35 35 36 36 37 37 37
7 7 9 12 14 16 17 17 17 18 20 21 21 21 21 21 22 25 31 40 46 53 34 43 35 30 29 25 31 28 31 31 34 35 35 36 36 36 36 37 38 39 41
8 8 10 13 15 17 18 18 19 20 20 21 21 22 23 23 24 25 29 34 45 31 39 33 31 19 25 28 28 30 33 33 35 37 36 37 37 37 37 39 40 41 42
9 10 12 14 17 18 19 19 20 20 21 21 23 24 26 26 27 28 29 28 28 31 44 30 23 42 37 34 32 32 34 33 33 36 38 37 37 39 42 43 45 46 46
11 12 14 16 18 19 19 20 20 21 22 23 26 27 28 28 29 29 29 28 26 29 36 44 44 41 38 40 37 32 34 34 37 34 31 34 41 46 46 47 45 42 40
12 13 16 17 18 19 20 20 21 23 25 27 27 29 30 29 30 28 29 28 28 28 35 49 43 44 47 42 40 38 39 36 35 32 38 43 43 41 41 42 41 40 39
13 15 16 18 19 19 21 22 23 26 28 29 30 30 31 29 29 28 27 28 29 28 31 40 46 48 44 44 42 44 43 37 42 40 38 40 41 42 38 36 36 37 37
14 15 17 18 19 20 22 24 26 28 29 30 30 31 31 30 30 28 27 29 29 30 31 37 46 45 45 40 43 39 43 41 38 37 38 36 36 35 34 36 39 39 39
14 16 17 18 20 21 23 26 28 29 30 30 29 29 29 27 26 24 26 26 29 34 35 38 41 43 37 33 41 40 42 40 41 38 42 40 35 35 36 36 36 37 38
14 16 17 19 21 23 25 28 28 29 30 30 29 26 25 22 21 22 25 31 32 32 38 39 30 32 42 41 40 43 43 44 44 40 43 42 39 41 45 40 37 35 33
14 16 18 20 22 25 27 29 30 27 29 29 27 25 23 24 26 27 30 25 28 30 27 39 40 40 40 42 44 42 41 44 49 39 35 51 43 45 44 43 37 32 34
15 17 20 22 25 28 29 30 28 26 28 26 25 27 26 27 30 31 28 35 23 32 34 35 38 37 40 40 40 46 44 43 45 48 42 47 45 47 45 44 39 35 35
16 18 21 25 27 28 29 29 27 25 25 24 26 26 29 33 30 30 33 34 40 42 40 31 31 35 36 40 39 38 40 43 46 45 34 40 46 46 46 46 43 36 34
17 20 24 26 28 27 28 29 25 23 23 26 26 28 32 28 32 30 32 38 39 40 30 31 30 36 36 31 28 30 36 39 42 44 42 37 40 44 48 47 34 31 31
20 23 24 25 26 27 28 25 21 21 25 27 28 32 31 29 29 28 33 35 38 32 34 36 40 34 29 27 29 28 32 36 39 43 39 38 43 38 34 37 36 43 40
Wind_Direction
235 257 243 276 307 303 304 307 305 307 306 304 302 301 300 299 297 295 294 292 291 292 280 260 267 277 288 296 266 264 270 270 278 278 279 276 269 271 276 275 269 266 265
251 251 246 270 285 292 301 308 307 307 308 306 305 304 301 301 302 301 297 289 281 275 270 274 275 287 282 274 281 277 275 274 279 282 282 279 280 281 283 281 274 265 263
241 203 267 287 294 304 311 314 309 307 305 304 307 307 303 299 295 291 288 283 280 279 279 283 287 288 285 285 282 280 284 282 282 280 277 276 277 277 274 272 270 267 266
222 232 261 280 299 311 314 312 307 306 309 314 319 314 305 296 278 274 289 293 288 285 284 283 285 287 287 285 282 281 283 282 280 278 277 278 277 276 273 270 266 264 264
207 230 249 286 312 321 324 324 323 326 328 329 332 329 310 287 265 254 272 298 307 299 308 293 301 303 297 293 289 286 283 282 282 289 287 285 283 286 285 281 278 273 267
202 199 270 319 333 338 342 340 342 339 335 337 339 340 322 289 258 263 279 273 319 303 318 297 299 310 302 298 294 292 288 287 286 290 282 287 292 287 286 287 285 283 285
191 222 313 345 348 350 353 350 346 342 339 342 345 353 346 302 279 288 285 273 317 296 309 307 301 302 301 299 296 293 291 289 293 283 289 296 291 290 291 290 287 284 281
194 236 336 352 356 356 352 348 346 349 350 350 353 353 341 336 219 298 303 301 294 303 305 308 307 305 305 302 297 293 292 293 289 287 297 295 289 290 290 289 288 285 282
202 264 340 351 351 352 352 348 344 345 345 350 353 4 341 322 319 311 322 314 317 315 318 319 318 318 315 309 302 298 296 295 289 292 293 290 288 289 289 289 288 285 283
207 292 334 340 346 349 347 341 339 337 338 340 344 343 336 322 319 318 313 317 321 319 322 322 322 321 319 313 305 301 300 297 293 293 291 290 289 288 287 287 285 283 281
223 293 318 335 341 341 339 337 333 331 333 335 336 334 332 330 326 310 311 316 318 321 321 323 322 323 320 314 308 305 300 293 293 293 293 291 290 289 287 285 283 280 280
242 284 313 328 332 334 332 330 329 328 327 327 329 331 331 330 324 321 314 316 316 320 319 320 323 323 320 316 304 297 295 294 295 293 292 292 291 289 287 283 283 281 280
254 283 309 319 323 325 327 327 325 324 324 324 325 324 324 321 319 317 315 318 317 319 325 318 324 323 321 314 312 300 294 296 296 296 295 292 292 288 286 284 282 281 280
258 283 300 311 318 322 324 323 322 322 321 320 320 321 320 320 317 318 319 323 322 316 317 315 321 331 313 315 305 298 295 298 299 298 296 293 292 288 287 286 285 283 280
259 280 297 308 314 318 319 319 319 318 319 320 320 320 320 319 316 316 317 320 321 310 312 311 312 314 321 317 312 306 297 298 298 295 293 291 288 289 290 288 285 283 280
262 281 298 307 312 314 315 316 318 319 320 321 320 319 317 316 314 315 316 320 317 308 299 306 313 318 320 316 316 307 305 302 300 296 289 296 295 293 291 288 286 284 280
268 287 299 305 308 310 313 317 319 320 319 319 319 315 315 316 314 316 317 317 315 314 303 309 315 317 317 317 316 314 312 303 302 295 296 296 295 292 290 286 284 282 281
275 291 299 303 308 313 316 319 321 320 320 319 317 316 316 316 314 312 310 312 312 314 307 308 312 314 315 316 313 312 311 307 305 301 297 298 296 291 288 285 284 282 283
283 292 299 304 309 315 319 321 320 319 319 319 318 316 316 316 313 313 313 314 319 315 310 303 305 312 315 311 309 310 312 309 303 301 302 298 297 294 289 288 287 284 282
286 294 301 308 316 320 321 319 318 320 319 318 318 320 319 318 320 323 321 319 313 308 306 303 302 303 302 309 315 310 309 308 305 306 304 301 301 294 293 291 289 285 282
289 297 307 315 317 318 320 322 321 318 318 321 323 324 326 328 327 319 317 311 311 309 306 309 316 312 311 311 312 316 309 310 306 307 304 303 303 300 300 300 297 291 286
296 306 311 313 316 320 323 322 319 317 318 321 325 330 330 327 327 321 317 314 308 309 315 315 311 308 308 314 317 314 310 308 306 311 306 303 304 301 303 307 304 292 288
302 309 312 316 321 323 322 321 320 318 316 322 329 330 327 327 325 325 328 321 317 316 313 312 310 311 312 315 314 311 308 304 301 304 306 301 310 306 312 312 306 295 292
306 309 316 320 322 322 321 322 323 317 318 324 329 328 326 328 330 328 319 317 317 314 319 319 312 311 310 308 306 302 303 303 304 308 306 296 310 305 313 310 310 300 294
309 316 320 322 321 322 324 324 323 322 323 327 328 328 332 327 326 321 319 318 316 316 323 321 311 310 312 311 310 311 309 312 307 312 318 305 308 306 313 313 313 305 298
318 319 320 321 324 324 324 329 329 325 325 331 329 327 327 324 323 321 320 317 313 324 328 313 315 316 321 326 330 323 322 315 310 310 320 312 314 313 311 308 310 319 320